CAPE
4 3 2 0 1 1 0 0 0 0 0 0 0 0 0 0 0 0 0 0 0 829 63 0 149 1276 1396 1509 1234 933 137 55 16 72 237 228 298 197 114 32 50 215 0 0 0
7 1 0 1 1 0 0 0 0 0 0 0 0 0 0 0 0 0 0 424 850 784 0 0 399 1207 908 608 338 252 15 89 67 82 99 135 315 163 178 63 145 81 0 0 0
1 1 0 0 1 0 0 0 0 0 0 0 0 0 0 0 0 0 385 388 644 465 0 0 15 690 554 304 212 23 21 78 2 0 0 35 131 247 94 85 83 162 0 0 0
2 2 0 2 2 0 0 0 0 0 0 0 0 0 0 0 0 0 174 436 391 3 0 178 783 461 499 511 169 354 98 0 71 116 31 118 139 91 179 46 62 69 87 217 562
6 1 0 0 2 0 0 0 0 0 0 0 0 0 0 0 0 0 181 335 0 0 211 811 732 488 230 238 192 172 103 108 174 122 308 225 38 186 27 4 78 108 196 247 336
1 1 1 0 2 1 0 0 0 0 0 0 0 0 0 0 0 0 0 0 0 0 325 668 299 248 401 281 371 262 261 35 154 210 229 104 26 0 4 0 12 171 154 140 63
4 1 1 0 0 2 1 1 0 0 1 0 0 0 0 0 0 0 0 0 0 22 275 1049 524 357 586 205 327 232 71 131 448 242 140 85 88 0 0 0 208 178 183 195 135
1 2 0 0 3 2 0 0 0 0 0 0 0 0 0 0 0 0 0 0 0 5 228 149 418 342 236 177 158 143 85 114 145 243 169 183 93 0 0 120 233 188 242 77 32
1 1 1 0 2 1 0 0 0 0 0 0 0 0 0 0 0 0 0 0 40 125 23 30 63 48 1 150 76 135 38 90 187 106 25 171 265 0 30 158 166 82 291 185 122
3 0 2 3 1 0 0 0 0 0 0 0 0 0 0 0 0 3 50 151 710 906 159 2 16 27 3 2 57 80 33 39 85 4 17 126 247 18 54 70 52 143 113 68 16
5 5 2 3 2 0 0 0 0 0 0 0 0 0 0 0 64 296 217 363 94 109 19 9 32 0 0 0 1 53 15 21 145 157 224 282 74 0 43 64 30 60 82 85 20
3 4 3 2 0 0 0 0 0 0 0 0 0 0 0 0 26 254 376 446 163 12 3 0 22 0 11 25 14 27 103 59 90 39 134 215 178 0 20 112 56 53 12 24 41
1 3 3 2 0 0 0 0 0 0 0 0 0 0 0 0 0 0 360 488 46 34 3 3 16 0 2 24 13 22 49 56 131 118 103 95 144 0 4 96 67 60 30 1 18
0 2 2 1 0 0 0 0 0 0 0 0 0 0 0 0 0 0 3 384 160 56 47 19 83 0 20 20 0 53 86 24 74 175 109 18 173 21 0 0 70 0 0 0 0
0 1 0 2 0 0 0 0 0 0 0 0 0 0 0 0 0 0 0 0 128 133 140 212 77 4 38 84 15 35 95 77 45 33 15 108 5 0 0 0 0 0 0 0 0
0 0 1 0 0 0 0 0 0 0 7 0 0 0 0 0 0 0 0 0 0 56 27 27 135 10 1 29 40 11 39 37 0 36 82 41 49 1 0 0 0 0 0 0 0
0 0 1 0 0 0 0 0 0 1 22 0 0 0 0 0 0 0 0 0 0 0 13 0 2 21 7 39 12 2 0 0 0 43 30 0 0 50 214 101 0 0 0 0 0
0 0 0 0 0 0 0 0 1 72 1 0 0 0 0 0 0 0 0 0 0 0 31 0 8 2 0 37 176 62 0 0 0 13 0 0 40 15 168 186 4 0 0 0 0
0 0 0 0 0 0 0 0 5 72 1 4 0 0 0 0 0 0 0 0 16 7 0 34 1 2 0 28 97 18 11 6 2 5 0 4 12 112 106 195 75 7 0 0 0
0 0 0 0 0 0 0 0 0 0 0 0 5 9 2 0 0 0 0 0 0 0 0 0 0 0 0 2 9 143 0 10 14 0 0 33 0 162 104 17 126 39 11 0 0
0 0 0 0 0 0 0 0 0 2 1 0 0 0 2 9 0 0 0 0 0 0 0 0 0 0 0 30 31 9 69 54 23 29 76 6 7 0 36 90 66 64 54 28 1
0 0 0 0 0 0 0 0 0 0 0 0 0 0 0 11 1 6 0 0 0 0 0 0 0 0 0 0 3 82 169 23 33 27 48 3 16 165 207 119 150 544 282 25 0
0 0 0 0 0 0 0 0 0 0 0 0 0 0 0 0 0 4 0 0 0 0 0 0 0 0 0 0 68 184 53 11 28 25 7 32 51 53 74 184 299 994 768 686 1102
0 0 0 0 0 0 0 0 0 0 0 0 0 0 0 0 0 19 196 272 126 0 0 0 0 0 0 0 0 0 99 0 0 2 24 14 0 262 64 252 217 89 1025 1026 357
0 0 0 0 0 0 0 0 0 0 0 0 0 0 0 38 55 31 24 48 116 21 0 0 0 0 0 0 0 0 5 2 1 21 34 1 0 103 4 0 98 232 1188 1202 571
0 0 0 0 0 0 0 0 0 0 0 0 0 0 0 0 0 0 0 0 17 40 8 80 1 0 0 0 0 0 0 2 2 3 4 0 34 53 0 0 89 275 1316 1311 1277
0 0 0 0 0 0 0 0 0 0 0 0 0 0 0 0 0 0 0 0 0 0 0 0 5 0 5 3 21 17 4 42 23 0 0 0 0 11 43 127 674 1194 1422 1249 1068
CIN
-0 -0 -0 -0 -0 -0 -0 -0 -0 -0 -0 -0 -0 -0 -0 -0 -0 -0 -0 -0 -0 -373 -420 -0 -107 -54 -15 -28 -29 -36 -124 -110 -94 -99 -78 -133 -49 -17 -23 -35 -15 -30 -0 -0 -0
-0 -0 -0 -0 -0 -0 -0 -0 -0 -0 -0 -0 -0 -0 -0 -0 -0 -0 -0 -430 -374 -362 -0 -0 -46 -6 -5 -11 -215 -60 -150 -115 -119 -123 -90 -144 -155 -19 -23 -48 -87 -123 -35 -0 -0
-0 -0 -0 -0 -0 -0 -0 -0 -0 -0 -0 -0 -0 -0 -0 -0 -0 -0 -385 -475 -392 -438 -0 -0 -88 -13 -10 -111 -36 -310 -181 -238 -110 -0 -6 -94 -94 -29 -52 -99 -101 -111 -0 -0 -0
-0 -0 -0 -0 -0 -0 -0 -0 -0 -0 -0 -0 -0 -0 -0 -0 -0 -0 -654 -520 -482 -20 -0 -114 -28 -18 -24 -67 -48 -17 -139 -0 -141 -137 -103 -149 -139 -11 -23 -60 -100 -111 -54 -99 -54
-0 -0 -0 -0 -0 -0 -0 -0 -0 -0 -0 -0 -0 -0 -0 -0 -0 -0 -673 -548 -0 -0 -143 -38 -7 -11 -28 -29 -97 -151 -151 -190 -175 -152 -100 -147 -126 -14 -33 -22 -77 -83 -55 -88 -71
-0 -0 -0 -0 -0 -0 -0 -0 -0 -0 -0 -0 -0 -0 -0 -0 -0 -0 -0 -0 -0 -0 -88 -36 -16 -26 -5 -20 -25 -91 -181 -147 -98 -98 -15 -9 -33 -0 -12 -0 -75 -43 -65 -57 -129
-0 -0 -0 -0 -0 -0 -0 -0 -0 -0 -0 -0 -0 -0 -0 -0 -0 -0 -0 -0 -0 -145 -70 -14 -35 -32 -28 -49 -26 -48 -95 -105 -32 -154 -10 -38 -40 -0 -0 -0 -16 -50 -44 -51 -168
-0 -0 -0 -0 -0 -0 -0 -0 -0 -0 -0 -0 -0 -0 -0 -0 -0 -0 -0 -0 -0 -27 -118 -173 -55 -42 -58 -38 -64 -66 -70 -73 -155 -194 -34 -31 -75 -0 -0 -17 -32 -51 -50 -87 -248
-0 -0 -0 -0 -0 -0 -0 -0 -0 -0 -0 -0 -0 -0 -0 -0 -0 -0 -0 -0 -11 -268 -417 -238 -243 -206 -12 -70 -205 -45 -73 -74 -67 -174 -135 -33 -73 -0 -28 -30 -38 -85 -70 -95 -119
-0 -0 -0 -0 -0 -0 -0 -0 -0 -0 -0 -0 -0 -0 -0 -0 -0 -96 -63 -41 -86 -88 -294 -131 -491 -286 -48 -8 -7 -8 -92 -78 -102 -54 -79 -86 -48 -78 -65 -47 -70 -170 -129 -116 -70
-0 -0 -0 -0 -0 -0 -0 -0 -0 -0 -0 -0 -0 -0 -0 -0 -61 -29 -28 -21 -152 -243 -378 -436 -324 -0 -0 -0 -162 -49 -69 -91 -42 -124 -92 -54 -7 -0 -70 -76 -83 -185 -154 -145 -286
-0 -0 -0 -0 -0 -0 -0 -0 -0 -0 -0 -0 -0 -0 -0 -0 -83 -21 -20 -17 -173 -71 -248 -0 -159 -0 -375 -391 -245 -84 -64 -156 -88 -185 -135 -74 -29 -0 -72 -97 -111 -200 -121 -175 -223
-0 -0 -0 -0 -0 -0 -0 -0 -0 -0 -0 -0 -0 -0 -0 -0 -0 -0 -12 -17 -133 -226 -99 -91 -265 -32 -157 -290 -234 -160 -106 -151 -132 -47 -106 -78 -44 -0 -34 -43 -89 -144 -169 -29 -99
-0 -0 -0 -0 -0 -0 -0 -0 -0 -0 -0 -0 -0 -0 -0 -0 -0 -0 -3 -7 -59 -271 -203 -222 -237 -0 -240 -253 -0 -209 -98 -40 -62 -99 -111 -117 -10 -82 -0 -0 -72 -1 -0 -0 -0
-0 -0 -0 -0 -0 -0 -0 -0 -0 -0 -0 -0 -0 -0 -0 -0 -0 -0 -0 -0 -47 -390 -349 -174 -273 -331 -334 -206 -130 -46 -83 -50 -42 -229 -112 -162 -208 -0 -0 -0 -0 -0 -0 -0 -0
-0 -0 -0 -0 -0 -0 -0 -0 -0 -0 -10 -0 -0 -0 -0 -0 -0 -0 -0 -0 -0 -246 -67 -30 -168 -286 -139 -67 -39 -140 -159 -194 -0 -193 -86 -139 -206 -218 -0 -0 -0 -0 -0 -0 -0
-0 -0 -0 -0 -0 -0 -0 -0 -0 -25 -18 -0 -0 -0 -0 -0 -0 -0 -0 -0 -0 -0 -43 -8 -52 -104 -136 -41 -111 -9 -0 -0 -0 -108 -42 -0 -0 -165 -92 -96 -0 -0 -0 -0 -0
-0 -0 -0 -0 -0 -0 -0 -0 -42 -37 -1 -0 -0 -0 -0 -0 -0 -0 -0 -0 -54 -25 -36 -3 -60 -18 -0 -103 -103 -282 -30 -0 -25 -14 -0 -0 -76 -185 -51 -57 -20 -0 -0 -0 -0
-0 -0 -0 -0 -0 -0 -0 -0 -27 -80 -3 -5 -0 -0 -0 -0 -0 -0 -0 -0 -31 -30 -0 -57 -44 -64 -0 -99 -138 -233 -145 -304 -41 -0 -0 -39 -211 -262 -69 -41 -73 -80 -0 -0 -0
-0 -0 -0 -0 -0 -0 -0 -0 -0 -0 -0 -0 -36 -34 -1 -0 -0 -0 -0 -0 -0 -0 -0 -0 -0 -59 -25 -54 -128 -85 -0 -167 -296 -80 -3 -2 -0 -215 -151 -94 -61 -70 -106 -0 -0
-0 -0 -0 -0 -0 -0 -0 -0 -0 -10 -6 -0 -0 -0 -6 -11 -0 -0 -0 -0 -0 -0 -0 -0 -0 -0 -0 -40 -70 -323 -121 -98 -216 -197 -187 -33 -103 -0 -280 -235 -168 -62 -68 -125 -11
-0 -0 -0 -0 -0 -0 -0 -0 -0 -0 -0 -0 -0 -0 -0 -8 -4 -5 -0 -0 -0 -0 -0 -0 -0 -0 -0 -2 -27 -72 -106 -183 -135 -355 -319 -210 -181 -161 -272 -227 -223 -61 -93 -76 -0
-0 -0 -0 -0 -0 -0 -0 -0 -0 -4 -0 -0 -0 -0 -0 -0 -0 -12 -0 -0 -0 -0 -0 -0 -0 -0 -0 -0 -64 -49 -160 -206 -169 -288 -298 -103 -56 -361 -325 -226 -232 -82 -77 -58 -53
-0 -0 -0 -0 -0 -0 -0 -0 -0 -0 -0 -0 -0 -0 -0 -0 -0 -45 -104 -40 -29 -0 -0 -0 -0 -0 -0 -0 -0 -0 -102 -0 -37 -64 -162 -60 -0 -194 -235 -114 -203 -341 -102 -135 -367
-0 -0 -0 -0 -0 -0 -0 -0 -0 -0 -0 -0 -11 -0 -0 -102 -107 -198 -242 -216 -145 -67 -0 -0 -0 -0 -0 -0 -0 -0 -14 -2 -71 -87 -61 -107 -0 -209 -323 -0 -222 -239 -126 -133 -328
-0 -0 -0 -0 -0 -0 -0 -0 -0 -0 -0 -0 -0 -0 -0 -0 -0 -0 -0 -0 -86 -184 -174 -87 -1 -0 -1 -0 -0 -0 -5 -84 -109 -84 -99 -0 -79 -356 -0 -4 -492 -327 -166 -134 -190
-0 -0 -0 -0 -0 -0 -0 -0 -0 -0 -0 -0 -0 -0 -0 -0 -0 -0 -0 -0 -0 -0 -0 -0 -118 -0 -143 -20 -26 -20 -31 -61 -105 -0 -0 -0 -0 -384 -459 -483 -266 -199 -175 -200 -188
Wind_Speed
12 10 8 7 7 7 7 8 7 8 9 10 10 9 10 13 17 4 7 9 8 10 3 7 11 14 13 9 10 11 4 3 6 4 2 18 6 13 11 6 5 5 9 18 11
13 11 9 7 7 7 6 7 7 8 9 10 11 11 11 12 5 10 14 8 9 11 5 9 12 11 5 5 6 5 5 3 7 5 5 7 10 7 6 5 12 13 17 20 17
15 12 10 8 7 7 7 7 7 8 9 9 10 11 11 11 5 8 7 13 10 9 5 13 16 15 9 4 2 5 7 8 13 17 15 12 20 15 13 4 10 9 22 20 13
16 13 11 10 8 8 8 8 8 9 9 8 8 9 9 4 2 3 6 11 7 6 7 9 12 5 4 4 4 3 6 7 7 10 11 5 14 9 7 7 14 14 16 12 5
16 15 12 11 10 9 9 9 9 10 9 9 8 8 4 4 11 6 7 6 6 5 11 14 10 5 4 3 8 9 11 13 25 22 22 20 15 4 9 7 16 14 12 18 16
17 15 13 12 11 10 10 9 10 11 10 9 8 8 3 6 6 11 9 6 8 10 11 16 5 12 5 7 4 7 17 19 7 19 12 10 7 1 7 3 19 18 13 8 17
17 16 14 13 12 11 10 10 11 12 10 8 7 5 5 16 7 10 10 7 9 13 15 7 6 3 10 7 4 3 7 13 10 16 3 10 4 8 6 4 22 18 10 10 17
19 17 15 13 13 11 11 11 12 12 9 8 6 5 9 8 10 12 12 12 14 4 16 22 10 6 4 3 4 5 2 5 12 18 5 7 4 8 6 13 15 15 11 12 15
19 17 15 14 14 13 11 13 14 12 8 5 4 4 10 2 3 9 9 13 10 14 20 19 9 6 10 8 7 10 7 6 5 11 7 4 3 7 11 15 12 12 11 9 8
19 19 16 14 13 13 14 9 7 8 6 8 9 5 8 10 8 10 8 9 14 26 17 14 6 5 5 10 4 17 8 13 3 7 2 10 5 10 16 16 11 14 11 11 7
19 16 17 14 12 11 11 2 2 1 6 12 10 7 6 12 6 6 8 5 15 6 6 4 6 7 9 8 10 8 3 13 12 12 8 9 6 11 15 16 12 12 11 11 13
19 16 15 14 11 8 4 5 11 10 7 19 19 15 18 6 3 8 6 6 11 11 1 7 4 1 10 10 7 11 15 18 10 15 5 10 11 11 11 19 16 14 14 14 12
20 16 14 13 12 4 6 11 10 13 4 8 12 8 5 4 10 12 9 7 17 16 12 1 11 8 14 15 16 17 12 13 6 8 16 11 6 7 8 17 16 16 15 15 14
20 17 13 10 4 3 6 12 16 9 4 2 9 7 6 7 7 11 8 9 12 15 17 12 7 13 17 14 5 14 6 14 6 3 2 5 1 5 6 7 18 17 16 14 13
20 16 12 6 7 4 7 6 4 3 4 11 6 3 3 8 6 8 8 2 8 17 12 17 15 16 22 17 19 13 18 8 1 4 3 1 5 8 6 7 8 11 17 17 16
20 13 8 4 4 12 12 13 4 2 7 8 6 7 4 5 9 8 6 6 5 15 21 10 8 18 19 9 11 7 11 8 4 3 6 7 5 8 6 12 10 8 20 19 16
20 10 5 7 3 12 6 3 3 4 4 9 9 8 10 8 9 6 6 6 7 5 2 9 6 6 11 7 5 2 9 6 8 9 4 13 7 15 10 15 15 15 12 21 18
22 8 12 7 4 10 4 5 4 13 5 4 11 10 10 10 10 10 8 6 10 9 2 3 9 7 2 4 6 4 7 10 6 3 5 9 7 13 9 16 17 16 14 14 16
21 4 4 7 10 5 1 3 6 4 10 9 3 5 8 8 4 6 10 9 10 10 9 5 7 3 5 14 9 1 6 5 11 1 5 3 14 13 9 15 14 16 14 13 10
4 4 5 11 12 5 0 7 12 17 7 10 5 7 4 9 6 5 6 8 6 13 8 4 3 5 6 3 4 11 13 5 4 7 2 10 10 7 13 11 10 15 14 14 11
3 2 3 11 7 1 3 7 17 7 4 4 10 9 10 5 6 3 5 6 6 5 4 3 3 12 4 6 10 5 5 7 7 4 7 7 12 10 7 8 4 9 14 15 13
5 3 5 5 2 4 7 8 8 9 7 6 4 5 7 10 8 6 3 5 7 6 3 3 3 5 8 10 7 7 8 7 7 5 2 5 8 6 4 3 12 5 6 7 14
5 4 6 4 3 6 9 12 15 16 6 5 8 9 12 8 7 8 10 6 8 4 5 4 4 6 13 10 4 1 4 5 9 6 5 6 8 4 7 4 7 5 8 6 4
4 4 6 3 4 12 11 8 14 18 13 17 8 6 7 8 10 9 15 13 15 1 8 8 3 6 6 9 5 4 5 8 10 6 9 4 16 7 7 6 5 6 7 6 8
5 4 5 6 7 13 12 9 13 13 18 14 11 21 16 9 9 12 14 17 21 2 5 3 4 6 11 10 9 10 5 7 5 8 8 18 21 15 12 10 10 8 6 7 9
6 6 6 7 11 11 12 13 16 17 13 13 16 19 16 7 11 13 10 12 7 15 14 11 6 3 8 11 11 13 6 4 2 3 2 5 9 14 11 4 6 7 11 8 9
7 7 4 8 9 10 11 12 14 15 10 16 14 13 12 17 16 13 9 7 16 15 17 14 10 4 6 14 9 7 6 8 4 4 2 3 8 16 8 8 12 14 12 12 10
Wind_Direction
355 350 340 325 311 300 305 307 308 306 307 311 319 325 326 323 304 199 248 237 187 172 184 260 245 244 247 234 234 197 93 153 206 281 260 330 278 162 112 115 64 125 132 148 155
355 350 339 325 309 303 294 298 301 300 303 311 322 329 329 334 287 253 238 201 137 155 219 248 246 233 280 334 106 33 47 265 201 200 161 222 282 274 89 83 78 111 123 138 160
355 349 341 323 310 304 291 292 292 289 293 304 319 326 325 324 286 246 270 181 169 175 257 279 287 285 285 279 319 126 171 235 280 235 241 253 300 245 117 88 149 141 140 151 164
354 349 341 326 312 299 290 286 283 285 291 301 313 316 323 269 310 56 137 145 167 221 252 267 267 273 358 245 54 97 170 208 273 233 205 159 274 108 130 187 154 154 143 117 144
352 349 343 330 313 302 295 292 289 289 297 304 314 318 295 231 250 140 152 146 171 204 238 251 261 313 228 181 113 117 158 255 262 284 161 197 221 89 87 82 152 145 134 148 183
352 349 344 333 317 307 303 299 294 291 293 301 308 315 242 255 138 143 165 170 204 210 244 253 352 319 295 29 247 142 184 213 277 304 213 160 109 121 90 172 156 150 152 153 110
350 348 344 335 325 315 305 305 295 291 292 296 301 282 256 244 123 163 183 195 224 217 247 41 358 357 339 337 77 35 207 225 182 255 140 113 54 92 92 150 136 117 155 153 109
348 346 343 337 328 320 308 299 290 284 286 281 277 271 254 286 244 174 190 209 218 347 14 10 333 306 46 238 7 334 192 7 342 358 333 113 227 122 151 112 127 139 142 112 135
346 343 339 336 330 322 309 297 284 276 259 261 227 231 267 224 206 238 199 225 217 33 28 21 21 351 14 22 21 3 330 328 130 239 267 269 157 145 128 126 133 112 114 126 120
342 340 335 330 330 324 308 274 308 299 221 222 258 299 253 245 213 198 211 239 52 14 332 11 10 37 29 43 52 292 321 328 247 274 158 265 204 155 142 133 139 133 136 144 168
335 331 331 329 327 332 331 207 292 266 247 205 191 226 288 223 72 180 206 219 101 108 80 12 341 23 329 299 344 300 345 284 252 265 332 25 203 163 148 144 141 150 157 159 178
333 332 327 322 317 326 280 259 258 296 262 226 260 253 255 298 225 211 189 237 57 87 211 58 256 253 304 310 356 297 269 263 219 257 166 212 224 161 159 159 164 169 163 175 189
330 330 325 318 316 274 224 235 278 313 295 263 212 258 234 181 262 263 179 209 98 86 64 134 238 13 327 322 310 295 258 257 217 263 209 357 126 155 190 157 169 178 176 177 178
328 329 326 319 310 235 230 245 240 241 306 264 190 242 230 237 271 266 254 194 95 114 95 252 255 210 224 235 205 324 253 231 33 63 336 336 223 323 193 174 170 179 170 172 174
327 328 324 244 315 257 312 358 338 335 287 168 172 89 197 181 262 245 233 73 144 160 163 229 179 208 243 245 152 234 94 114 115 91 155 291 101 258 346 202 177 175 176 176 190
325 323 317 188 222 246 298 295 319 246 244 150 128 149 185 198 265 284 159 168 288 164 213 263 164 193 226 238 92 191 104 115 114 66 39 335 8 279 202 199 176 185 174 177 180
322 305 234 300 231 325 257 327 308 232 200 138 162 165 191 181 235 247 208 188 189 222 304 296 263 212 214 93 15 41 50 4 49 23 323 353 335 272 235 188 178 180 181 170 173
320 308 212 239 302 309 309 21 296 310 131 142 162 176 178 180 220 213 212 210 220 224 234 187 326 195 35 79 73 7 132 144 107 78 291 346 280 279 203 185 172 175 171 164 180
316 180 231 236 214 257 305 249 232 266 350 27 265 206 214 173 193 219 206 204 199 197 200 170 253 233 209 186 155 209 46 154 115 61 30 265 281 277 348 154 164 174 167 178 174
312 264 216 143 176 207 213 253 285 271 19 344 80 274 2 155 170 239 232 222 207 196 195 236 335 209 272 177 181 163 162 90 86 121 167 353 295 266 341 357 191 178 177 178 175
245 266 104 154 173 217 244 263 300 350 90 354 334 340 334 352 185 265 268 286 121 47 95 248 214 286 107 213 147 127 188 128 106 124 136 164 276 218 264 292 48 222 182 174 180
314 292 156 154 191 227 255 268 298 300 335 335 279 292 309 336 334 328 294 62 86 85 6 306 261 310 252 232 221 168 156 138 130 211 173 132 261 307 293 63 4 107 103 173 180
314 263 173 170 252 273 290 313 334 342 7 303 320 343 344 339 348 339 337 329 154 155 125 353 323 347 334 347 49 132 211 136 94 110 204 135 274 177 256 39 62 24 56 73 75
302 330 12 315 3 349 339 343 348 340 332 354 332 321 336 335 322 334 5 345 358 311 137 105 262 232 228 256 295 331 158 159 156 133 169 179 276 253 259 183 99 354 92 81 108
18 36 13 329 335 317 316 332 321 6 358 8 345 12 5 4 4 9 360 338 349 67 344 161 248 277 289 303 325 313 169 162 189 179 170 193 222 222 228 198 166 177 160 132 124
20 359 338 287 298 318 23 17 3 354 352 357 9 355 346 334 20 345 2 343 295 336 335 325 289 300 301 286 281 279 284 100 288 283 150 65 201 197 218 201 120 188 145 154 138
11 322 271 284 324 1 9 352 354 18 331 353 337 326 331 321 326 310 307 291 286 286 295 302 316 1 279 297 336 332 286 140 197 280 132 208 240 195 199 203 182 167 153 159 161